This is the latest recevied weather packets stored in our database for station/object NO9B. If no packets are shown the sender has not sent any weather packets the latest 10 day(s).
| Time | Temp. | Humidity | Pressure | Rain* | Wind** | Luminosity | Snow |
|---|---|---|---|---|---|---|---|
| 1787417310 | 24.44° C | 73% | 1015.5 hPa | 0 mm | - | 605 W/m² | - |
| 1787417006 | 24.44° C | 71% | 1015.4 hPa | 0 mm | - | 266 W/m² | - |
| 1787416701 | 24.44° C | 68% | 1015.6 hPa | 0 mm | - | 231 W/m² | - |
| 1787416397 | 25° C | 70% | 1015.5 hPa | 0 mm | - | 381 W/m² | - |
| 1787416097 | 25° C | 70% | 1015.6 hPa | 0 mm | - | 137 W/m² | - |
| 1787415792 | 25° C | 72% | 1015.4 hPa | 0 mm | - | 68 W/m² | - |
| 1787415492 | 24.44° C | 69% | 1015.4 hPa | 0 mm | - | 90 W/m² | - |
| 1787415187 | 24.44° C | 69% | 1015.3 hPa | 0 mm | - | 76 W/m² | - |
| 1787414882 | 24.44° C | 71% | 1015.5 hPa | 0 mm | - | 55 W/m² | - |
| 1787414578 | 23.89° C | 71% | 1015.6 hPa | 0 mm | - | 52 W/m² | - |
| 1787414276 | 23.89° C | 69% | 1015.5 hPa | 0 mm | - | 53 W/m² | - |
| 1787413972 | 23.89° C | 68% | 1015.5 hPa | 0 mm | - | 83 W/m² | - |
| 1787413671 | 23.89° C | 69% | 1015.5 hPa | 0 mm | - | 121 W/m² | - |
| 1787413371 | 23.89° C | 69% | 1015.6 hPa | 0 mm | - | 128 W/m² | - |
| 1787413068 | 23.89° C | 70% | 1015.4 hPa | 0 mm | - | 88 W/m² | - |
| 1787412764 | 23.89° C | 68% | 1015.4 hPa | 0 mm | - | 45 W/m² | - |
| 1787412462 | 23.33° C | 67% | 1015.2 hPa | 0 mm | - | 41 W/m² | - |
| 1787412158 | 23.33° C | 69% | 1015.3 hPa | 0 mm | - | 41 W/m² | - |
| 1787411856 | 23.33° C | 68% | 1015.4 hPa | 0 mm | - | 42 W/m² | - |
| 1787411551 | 22.78° C | 71% | 1015.2 hPa | 0 mm | - | 40 W/m² | - |
| 1787411246 | 22.78° C | 68% | 1015.3 hPa | 0 mm | - | 51 W/m² | - |
| 1787410943 | 22.78° C | 72% | 1015.2 hPa | 0 mm | - | 38 W/m² | - |
| 1787410638 | 22.78° C | 74% | 1015.1 hPa | 0 mm | - | 34 W/m² | - |
| 1787410334 | 22.22° C | 71% | 1015.2 hPa | 0 mm | - | 33 W/m² | - |
| 1787410029 | 22.22° C | 71% | 1015.3 hPa | 0 mm | - | 32 W/m² | - |
* Rain latest hour (hover to see other rain measurements)
** Current wind speed in m/s (hover to see current wind gust speed)